Terminal Aerodrome Forecast
Issued by NWS New Orleans/Baton Rouge, LA

Home | Current Version | Previous Version | Text Only | Print | Product List | Glossary On
Versions: 1 2 3 4 5 6 7 8 9 10 11 12 13 14 15 16 17 18 19 20 21 22 23 24 25 26 27 28 29 30 31 32
000
FTUS44 KLIX 032025 AAA
TAFNEW
TAF AMD
KNEW 032025Z 0320/0418 10018G25KT P6SM OVC025
     FM040400 10013G21KT P6SM SHRA OVC020
     FM040900 11009KT 6SM SHRA BR OVC008
     FM041700 19008KT 6SM SHRA BR OVC015=

USA.gov is the U.S. government's official web portal to all federal, state and local government web resources and services.